When you browse on this site, cookies collect data to enhance your experience and personalize the content and advertising you see.
Visit our Privacy Policy to learn more. By continuing to use the site, you agree to this use of cookies and data.
  • en France
  • Liste des pays
  • À 7 jours
  • Température de l'eau
  • Carte satellitaire
  • Carte météo
  • Widgets météo
  • user-avatar
    Se connecter

    Météo par heure à Tamalé

    Ce jour, 25 Mai, Samedi

    Heure Température Précipitation Vent Pression Humidité
    00:00 +30°C° 0 mm 2 m/s 742 mmHg 64%
    01:00 +29°C° 0 mm 2 m/s 741 mmHg 66%
    02:00 +29°C° 0 mm 2 m/s 741 mmHg 69%
    03:00 +28°C° 0 mm 1 m/s 741 mmHg 71%
    04:00 +28°C° 0 mm 1 m/s 741 mmHg 72%
    05:00 +28°C° 0 mm 1 m/s 742 mmHg 74%
    06:00 +28°C° 0 mm 1 m/s 742 mmHg 77%
    07:00 +30°C° 0 mm 2 m/s 742 mmHg 70%
    08:00 +31°C° 0 mm 2 m/s 743 mmHg 64%
    09:00 +34°C° 0 mm 2 m/s 743 mmHg 57%
    10:00 +37°C° 0 mm 2 m/s 743 mmHg 50%
    11:00 +39°C° 0 mm 1 m/s 742 mmHg 42%
    12:00 +42°C° 0 mm 1 m/s 742 mmHg 35%
    13:00 +42°C° 0 mm 1 m/s 741 mmHg 35%
    14:00 +41°C° 0 mm 1 m/s 740 mmHg 35%
    15:00 +38°C° 0 mm 0 m/s 740 mmHg 35%
    16:00 +37°C° 0 mm 0 m/s 740 mmHg 37%
    17:00 +35°C° 0 mm 0 m/s 739 mmHg 40%
    18:00 +34°C° 0 mm 0 m/s 739 mmHg 43%
    19:00 +34°C° 1.1 mm 1 m/s 740 mmHg 50%
    20:00 +34°C° 1.1 mm 2 m/s 740 mmHg 58%
    21:00 +31°C° 1.1 mm 2 m/s 741 mmHg 66%
    22:00 +30°C° 5.7 mm 2 m/s 741 mmHg 73%
    23:00 +29°C° 5.7 mm 2 m/s 741 mmHg 81%

    Demain, 26 Mai, Dimanche

    Heure Température Précipitation Vent Pression Humidité
    00:00 +28°C° 5.7 mm 1 m/s 741 mmHg 89%
    01:00 +28°C° 7.9 mm 1 m/s 741 mmHg 90%
    02:00 +28°C° 7.9 mm 1 m/s 741 mmHg 91%
    03:00 +27°C° 7.9 mm 1 m/s 741 mmHg 92%
    04:00 +27°C° 5.1 mm 2 m/s 742 mmHg 92%
    05:00 +27°C° 5.1 mm 2 m/s 742 mmHg 93%
    06:00 +27°C° 5.1 mm 3 m/s 743 mmHg 93%
    07:00 +27°C° 1.3 mm 3 m/s 743 mmHg 92%
    08:00 +27°C° 1.3 mm 3 m/s 743 mmHg 92%
    09:00 +27°C° 1.3 mm 4 m/s 743 mmHg 91%
    10:00 +29°C° 0 mm 3 m/s 743 mmHg 82%
    11:00 +31°C° 0 mm 3 m/s 742 mmHg 73%
    12:00 +34°C° 0 mm 3 m/s 742 mmHg 64%
    13:00 +35°C° 0 mm 2 m/s 741 mmHg 60%
    14:00 +35°C° 0 mm 2 m/s 740 mmHg 57%
    15:00 +35°C° 0 mm 1 m/s 740 mmHg 53%
    16:00 +34°C° 0 mm 1 m/s 740 mmHg 57%
    17:00 +33°C° 0 mm 1 m/s 740 mmHg 61%
    18:00 +32°C° 0 mm 1 m/s 740 mmHg 65%
    19:00 +31°C° 0 mm 1 m/s 740 mmHg 66%
    20:00 +30°C° 0 mm 1 m/s 741 mmHg 68%
    21:00 +30°C° 0 mm 1 m/s 741 mmHg 70%
    22:00 +29°C° 0 mm 1 m/s 741 mmHg 71%
    23:00 +29°C° 0 mm 1 m/s 741 mmHg 72%

    Après-demain, 27 Mai, Lundi

    Heure Température Précipitation Vent Pression Humidité
    00:00 +29°C° 0 mm 1 m/s 741 mmHg 73%
    01:00 +29°C° 0 mm 2 m/s 741 mmHg 73%
    02:00 +28°C° 0 mm 2 m/s 740 mmHg 73%
    03:00 +28°C° 0 mm 3 m/s 740 mmHg 73%
    04:00 +28°C° 0 mm 3 m/s 741 mmHg 75%
    05:00 +28°C° 0 mm 3 m/s 741 mmHg 77%
    06:00 +27°C° 0 mm 3 m/s 741 mmHg 80%
    07:00 +28°C° 0 mm 3 m/s 742 mmHg 77%
    08:00 +29°C° 0 mm 3 m/s 742 mmHg 74%
    09:00 +30°C° 0 mm 3 m/s 742 mmHg 71%
    10:00 +33°C° 0 mm 3 m/s 742 mmHg 66%
    11:00 +34°C° 0 mm 3 m/s 742 mmHg 62%
    12:00 +35°C° 0 mm 3 m/s 741 mmHg 57%
    13:00 +36°C° 0 mm 3 m/s 741 mmHg 54%
    14:00 +37°C° 0 mm 3 m/s 740 mmHg 52%
    15:00 +37°C° 0 mm 3 m/s 739 mmHg 49%
    16:00 +36°C° 0 mm 2 m/s 739 mmHg 53%
    17:00 +35°C° 0 mm 2 m/s 739 mmHg 57%
    18:00 +33°C° 0 mm 1 m/s 739 mmHg 61%
    19:00 +32°C° 0 mm 2 m/s 740 mmHg 62%
    20:00 +32°C° 0 mm 2 m/s 741 mmHg 64%
    21:00 +31°C° 0 mm 2 m/s 742 mmHg 65%
    22:00 +30°C° 0.9 mm 3 m/s 742 mmHg 72%
    23:00 +29°C° 0.9 mm 3 m/s 741 mmHg 78%

    28 Mai, Mardi

    Heure Température Précipitation Vent Pression Humidité
    00:00 +27°C° 0.9 mm 4 m/s 741 mmHg 85%
    01:00 +27°C° 0.1 mm 4 m/s 741 mmHg 85%
    02:00 +27°C° 0.1 mm 3 m/s 741 mmHg 86%
    03:00 +27°C° 0.1 mm 3 m/s 740 mmHg 86%
    04:00 +27°C° 0.2 mm 3 m/s 741 mmHg 86%
    05:00 +27°C° 0.2 mm 3 m/s 741 mmHg 87%
    06:00 +27°C° 0.2 mm 3 m/s 741 mmHg 87%
    07:00 +28°C° 0 mm 3 m/s 742 mmHg 82%
    08:00 +29°C° 0 mm 3 m/s 742 mmHg 76%
    09:00 +30°C° 0 mm 3 m/s 743 mmHg 71%
    10:00 +32°C° 0 mm 4 m/s 743 mmHg 65%
    11:00 +34°C° 0 mm 4 m/s 742 mmHg 60%
    12:00 +35°C° 0 mm 4 m/s 742 mmHg 54%
    13:00 +35°C° 0 mm 4 m/s 741 mmHg 53%
    14:00 +36°C° 0 mm 4 m/s 740 mmHg 51%
    15:00 +36°C° 0 mm 3 m/s 740 mmHg 50%
    16:00 +35°C° 0 mm 3 m/s 740 mmHg 54%
    17:00 +34°C° 0 mm 2 m/s 740 mmHg 57%
    18:00 +32°C° 0 mm 2 m/s 740 mmHg 61%
    19:00 +32°C° 0 mm 1 m/s 740 mmHg 63%
    20:00 +31°C° 0 mm 1 m/s 741 mmHg 64%
    21:00 +30°C° 0 mm 1 m/s 742 mmHg 66%
    22:00 +30°C° 0 mm 1 m/s 741 mmHg 67%
    23:00 +29°C° 0 mm 2 m/s 741 mmHg 68%

    29 Mai, Mercredi

    Heure Température Précipitation Vent Pression Humidité
    00:00 +29°C° 0 mm 2 m/s 741 mmHg 69%
    01:00 +29°C° 0 mm 2 m/s 741 mmHg 71%
    02:00 +28°C° 0 mm 2 m/s 740 mmHg 73%
    03:00 +28°C° 0 mm 2 m/s 740 mmHg 75%
    04:00 +28°C° 0 mm 2 m/s 740 mmHg 77%
    05:00 +27°C° 0 mm 2 m/s 741 mmHg 79%
    06:00 +27°C° 0 mm 3 m/s 741 mmHg 81%
    07:00 +29°C° 0 mm 3 m/s 741 mmHg 75%
    08:00 +30°C° 0 mm 3 m/s 742 mmHg 69%
    09:00 +33°C° 0 mm 4 m/s 742 mmHg 63%
    10:00 +35°C° 0 mm 3 m/s 742 mmHg 58%
    11:00 +36°C° 0 mm 3 m/s 741 mmHg 53%
    12:00 +38°C° 0 mm 3 m/s 741 mmHg 48%
    13:00 +38°C° 0 mm 3 m/s 740 mmHg 46%
    14:00 +39°C° 0 mm 3 m/s 739 mmHg 43%
    15:00 +40°C° 0 mm 2 m/s 738 mmHg 40%
    16:00 +38°C° 0 mm 2 m/s 739 mmHg 44%
    17:00 +36°C° 0 mm 1 m/s 739 mmHg 48%
    18:00 +35°C° 0 mm 1 m/s 739 mmHg 52%
    19:00 +33°C° 0.3 mm 1 m/s 739 mmHg 56%
    20:00 +32°C° 0.3 mm 2 m/s 740 mmHg 61%
    21:00 +31°C° 0.3 mm 2 m/s 740 mmHg 66%
    22:00 +30°C° 1.2 mm 2 m/s 740 mmHg 71%
    23:00 +29°C° 1.2 mm 2 m/s 741 mmHg 77%

    30 Mai, Jeudi

    Heure Température Précipitation Vent Pression Humidité
    00:00 +28°C° 1.2 mm 2 m/s 741 mmHg 83%
    01:00 +28°C° 0.1 mm 2 m/s 741 mmHg 84%
    02:00 +28°C° 0.1 mm 2 m/s 740 mmHg 85%
    03:00 +28°C° 0.1 mm 2 m/s 740 mmHg 86%
    04:00 +28°C° 0 mm 2 m/s 741 mmHg 87%
    05:00 +27°C° 0 mm 3 m/s 741 mmHg 88%
    06:00 +27°C° 0 mm 3 m/s 741 mmHg 89%
    07:00 +28°C° 0 mm 3 m/s 742 mmHg 85%
    08:00 +29°C° 0 mm 3 m/s 742 mmHg 81%
    09:00 +30°C° 0 mm 4 m/s 742 mmHg 77%
    10:00 +33°C° 0 mm 4 m/s 742 mmHg 70%
    11:00 +35°C° 0 mm 4 m/s 741 mmHg 63%
    12:00 +36°C° 0 mm 4 m/s 741 mmHg 56%
    13:00 +37°C° 0 mm 3 m/s 740 mmHg 52%
    14:00 +38°C° 0 mm 3 m/s 739 mmHg 49%
    15:00 +38°C° 0 mm 2 m/s 738 mmHg 46%
    16:00 +37°C° 0 mm 2 m/s 739 mmHg 49%
    17:00 +35°C° 0 mm 1 m/s 739 mmHg 53%
    18:00 +34°C° 0 mm 1 m/s 739 mmHg 56%
    19:00 +32°C° 0.9 mm 1 m/s 740 mmHg 63%
    20:00 +31°C° 0.9 mm 1 m/s 741 mmHg 70%
    21:00 +29°C° 0.9 mm 2 m/s 741 mmHg 77%
    22:00 +29°C° 0.6 mm 2 m/s 741 mmHg 80%
    23:00 +28°C° 0.6 mm 3 m/s 741 mmHg 83%
    Voir plus